Home > Weather > Shawinigan > Past weeks

Flag for Canada Past Weather in Shawinigan, Quebec, Canada — Yesterday and Last 2 Weeks

Now
68 °F

Mild.


Feels Like: 68 °F
Forecast: 60 / 75 °F
Wind: 5 mph from Northeast

Location: Trois Rivieres

Current Time: Aug 27, 2016 at 11:25:41 AM

Latest Report: Aug 27, 2016 at 10:00 AM


Visibility: N/A

Pressure: 30.22 "Hg

Humidity: 67%

Dew Point: 57 °F

Location of ShawiniganLocation

Past Weather in Shawinigan — Graph

°F

Shawinigan Temperature Yesterday

Maximum temperature yesterday: 82 °F (at 3:00 PM)
Minimum temperature yesterday: 69 °F (at 11:00 PM)
Average temperature yesterday: 75 °F

High & Low Weather Summary for the Past Weeks

 TemperatureHumidityPressure
High82 °F (Aug 26, 3:00 PM)100% (Aug 14, 2:00 AM)30.22 "Hg (Aug 14, 2:00 AM)
Low58 °F (Aug 23, 6:00 AM)38% (Aug 26, 3:00 PM)29.66 "Hg (Aug 21, 4:00 PM)
Average69 °F78%29.93 "Hg
* Reported Aug 12 10:00 AM — Aug 27 10:00 AM, Shawinigan, Weather by CustomWeather, © 2016

Note: Actual official high and low records may vary slightly from our data, if they occured in-between our weather recording intervals... More about our weather records

Advertising

Shawinigan Weather History for the Previous 24 Hours

Scroll right to see more
 ConditionsComfort  
Time TempWeatherWind HumidityBarometerVisibility
10:00 AM
Sat, Aug 27
68 °FMild.5 mph67%30.22 "HgN/A
9:00 AM65 °FMild.6 mph74%30.21 "HgN/A
8:00 AM64 °FMild.5 mph76%30.21 "HgN/A
7:00 AM62 °FCool.5 mph82%30.19 "HgN/A
6:00 AM62 °FCool.6 mph84%30.16 "HgN/A
5:00 AM63 °FMild.8 mph78%30.14 "HgN/A
4:00 AM63 °FMild.3 mph80%30.12 "HgN/A
3:00 AM64 °FMild.3 mph76%30.11 "HgN/A
2:00 AM66 °FMild.5 mph74%30.09 "HgN/A
1:00 AM68 °FMild.7 mph70%30.07 "HgN/A
12:00 AM70 °FMild.7 mph65%30.04 "HgN/A
11:00 PM
Fri, Aug 26
69 °FMild.5 mph72%30.03 "HgN/A
10:00 PM70 °FMild.3 mph71%30.01 "HgN/A
9:00 PM72 °FMild.5 mph64%29.99 "HgN/A
8:00 PM75 °FMild.3 mph57%29.97 "HgN/A
7:00 PM78 °FWarm.7 mph50%29.95 "HgN/A
6:00 PM80 °FWarm.10 mph43%29.93 "HgN/A
5:00 PM81 °FPleasantly warm.10 mph40%29.91 "HgN/A
4:00 PM81 °FPleasantly warm.9 mph39%29.90 "HgN/A
3:00 PM82 °FPleasantly warm.12 mph38%29.88 "HgN/A
2:00 PM81 °FWarm.14 mph42%29.88 "HgN/A
1:00 PM81 °FWarm.9 mph47%29.86 "HgN/A
12:00 PM80 °FWarm.9 mph62%29.85 "HgN/A
11:00 AM74 °FMild.16 mph92%29.85 "HgN/A
Weather by CustomWeather, © 2016

See weather overviewHow to use our weather pages